Other Surface Observations
Issued by NWS Charleston, SC

Home | Current Version | Previous Version | Text Only | Print | Product List | Glossary On
Versions: 1 2 3 4 5 6 7 8 9 10 11 12 13 14 15 16 17 18 19 20 21 22 23 24 25 26 27 28 29 30 31 32 33 34 35 36 37 38 39 40 41 42 43 44 45 46 47 48 49 50
000
SXUS52 KCHS 011926
OSOCHS

MARINE OBSERVATIONS
NATIONAL WEATHER SERVICE CHARLESTON SC
200 PM EST SUN MAR 01 2015

...DOWNTOWN CHARLESTON AND HARBOR...

CITY           SKY/WX    TMP DP  RH WIND       PRES   REMARKS
WATERFRONT PRK   N/A     45 N/A N/A N9          N/A
FORT JOHNSON   NOT AVBL

...LAKE MOULTRIE...

CITY           SKY/WX    TMP DP  RH WIND       PRES   REMARKS
PINOPOLIS      NOT AVBL

...LAKE AND SUPPLEMENTAL COASTAL OBSERVATIONS...

STATION/POSITION TIME  TEMP    WIND        PRES    WAVE   SWELL
                       AIR SEA DIR/SP/G            HT/PER HT/PER/DIR
                 (UTC) (F)     (DEG/KT/KT) (MB)    (FT/S) (FT/S/D)
FORT PULASKI     1800   45 49  320/  8/ 10 1031.2F
SAPELO ISLAND    1800   50      10/  8     1030.0F
UPR LAKE MARION  NOT AVBL
WINYAH BAY       NOT AVBL
LAKE MURRAY      1900   38      CALM  /  2 1030.1F
ACE BASIN NERRS  NOT AVBL


...C-MAN AND BUOY OBSERVATIONS...

STATION/POSITION TIME  TEMP    WIND        PRES    WAVE   SWELL
                       AIR SEA DIR/SP/G            HT/PER HT/PER/DIR
                 (UTC) (F)     (DEG/KT/KT) (MB)    (FT/S) (FT/S/D)
BUOY 41004       1850      68  350/ 14/ 16 1028.6F   7/ 7   5/ 7
BUOY 41008       1850   47 53   20/ 16/ 17 1028.8F   6/ 9   5/100/ 9
FOLLY BEACH CMAN 1900   44     340/  7/  9 1030.0F
CAPERS NS BUOY   NOT AVBL
FRIPP NS BUOY    1800   44      10/ 14/ 16 1029.2F
5E ST. MARYS GA  1821      52                N/A     6/ 8   2/ 80/11


STATION/POSITION TIME  TEMP    WIND        PRES    WAVE   SWELL
                       AIR SEA DIR/SP/G            HT/PER HT/PER/DIR
                 (UTC) (F)     (DEG/KT/KT) (MB)    (FT/S) (FT/S/D)
FRYING PAN BUOY  1850   66 61  160/ 16/ 17 1028.9F   7/ 6   3/ 90/ 8
BUOY 41025       NOT AVBL
CAPE LOOKOUT NC  1900   57     150/  9/ 10 1029.0F
BUOY 41002       1850   68 72  120/ 17/ 19 1030.5F   9/ 9   5/ 60/ 9
BUOY 41010       1820   71 74   90/ 17/ 21 1027.4F
ST AUGUSTINE FL  1900   51     360/ 16/ 17 1028.5F

$$



USA.gov is the U.S. government's official web portal to all federal, state and local government web resources and services.